Vorticity
7 8 8 5 3 -7 1 14 9 -3 -12 3 9 17 6 -0 17 12 4 -4 3 20 6 3 -3 5 -1 -0 1 8 7 4 3 1 1 3 5 5 5 4 6 8 6 8 9 7 9 7 6
8 8 7 10 -4 1 7 -7 4 27 -1 -0 2 4 -0 8 12 27 -7 10 6 11 7 7 2 4 -2 8 7 4 3 1 0 1 4 7 9 9 8 9 9 9 8 8 8 8 6 7 5
8 10 1 -4 4 -0 27 29 -5 3 1 8 -12 0 13 7 3 19 8 12 17 9 9 5 6 6 6 4 3 1 0 0 5 10 14 15 15 14 14 12 11 11 12 14 14 12 10 9 8
12 7 -2 -12 -14 58 -8 -0 0 -6 -6 19 2 17 4 4 3 1 9 10 6 6 9 8 5 2 -0 -1 2 9 16 18 16 15 9 8 9 9 7 7 6 4 5 6 7 9 12 13 13
12 2 -5 8 16 9 17 14 7 4 24 -1 5 12 7 -3 10 14 10 5 7 8 4 1 1 -0 2 12 13 12 13 12 7 5 6 6 7 2 0 3 3 4 5 4 4 4 5 3 3
5 -11 -1 11 25 -7 0 8 -4 24 -9 -3 3 3 -0 20 13 9 11 8 4 3 2 1 -0 2 10 11 6 7 3 2 0 3 6 5 5 3 5 4 5 5 5 5 5 4 4 3 4
-2 -6 -5 55 8 11 12 -13 30 7 5 9 4 4 10 19 12 7 8 4 2 1 1 1 4 8 10 8 3 5 5 7 6 6 3 4 4 7 7 6 7 7 6 6 5 5 5 4 4
-5 -3 16 17 3 0 4 -2 0 24 4 5 -3 7 8 20 8 4 1 -0 0 1 2 4 9 9 6 4 7 6 7 8 8 5 7 8 9 10 8 7 7 8 6 7 8 7 7 6 6
8 -6 10 34 -2 -1 2 -2 -5 5 -5 2 2 -22 23 10 3 1 1 2 2 1 6 8 11 6 6 8 6 9 7 6 7 8 8 6 4 4 4 5 5 5 5 6 5 6 6 7 8
10 20 20 17 11 12 7 5 14 1 -5 6 2 7 5 8 3 3 4 2 5 9 9 9 9 4 5 7 9 8 7 9 10 5 4 4 2 3 3 3 4 3 5 8 10 11 12 12 12
-6 0 -3 13 0 11 -7 3 15 1 13 -6 30 8 10 10 7 6 7 13 1 13 6 12 7 5 6 8 5 2 5 1 1 4 2 3 1 5 6 5 5 6 5 8 8 9 9 10 9
3 7 11 2 13 0 17 16 3 24 23 10 3 4 12 9 10 11 11 2 -0 -0 11 -2 13 8 7 4 3 8 3 4 0 -0 1 2 6 5 3 4 6 6 11 8 8 8 9 8 6
0 4 -0 30 0 1 5 18 13 7 -4 8 5 -0 8 13 16 13 13 2 -5 9 -6 7 19 11 5 3 5 1 1 2 -0 3 2 3 3 3 3 7 7 10 4 5 6 7 6 5 4
3 10 20 24 -4 -9 9 2 4 -2 4 1 1 4 6 -0 9 9 3 17 0 -2 0 2 -1 2 17 3 4 2 2 2 2 4 2 3 4 6 7 3 6 4 4 6 6 3 7 3 1
13 0 2 3 10 12 -1 5 11 11 -7 17 4 7 2 1 8 8 4 15 -4 22 3 41 -14 30 7 -4 -0 1 1 5 5 4 5 5 2 5 2 3 7 2 0 1 1 3 2 2 -1
11 -3 11 8 0 -2 3 20 -9 9 11 0 5 9 9 13 5 10 -8 13 5 6 10 24 -8 -8 3 -12 9 4 7 5 5 5 5 3 2 11 3 1 0 -3 -4 6 6 4 2 6 6
8 -4 23 9 7 15 9 24 21 -4 7 3 10 8 9 6 9 14 17 2 2 7 1 -6 -9 -3 -8 2 9 4 3 6 5 6 5 7 5 6 7 3 3 -0 2 5 -3 11 1 4 7
-3 59 23 10 5 14 4 12 12 5 1 -1 13 -5 8 5 7 7 1 2 8 5 -4 2 -1 -5 -1 5 9 8 6 7 8 8 7 5 8 5 2 -3 6 13 3 1 6 11 14 11 11
4 8 63 4 -1 -13 26 -0 -5 3 21 22 6 37 15 9 3 13 -3 6 3 0 -11 9 9 6 19 6 5 -0 1 11 13 13 8 5 5 -11 5 2 5 5 10 8 11 13 13 11 12
5 -0 -0 6 6 28 5 17 6 7 10 4 10 3 10 17 9 10 -11 -5 -1 17 8 8 14 3 0 1 2 7 9 6 -1 -4 -2 3 5 10 6 7 8 13 8 10 9 8 6 13 10
45 3 2 -4 -5 -1 -3 15 3 15 15 12 5 11 10 4 1 2 4 11 18 14 10 4 2 3 2 5 9 9 8 13 12 9 7 7 1 5 4 14 13 7 7 8 9 11 15 12 10
12 7 3 6 15 7 71 17 15 12 2 10 3 10 15 9 10 5 9 19 6 3 3 4 5 2 4 7 9 10 8 5 6 8 6 6 9 12 14 8 9 9 10 9 8 5 4 5 8
-9 1 18 19 20 6 10 -2 41 4 8 13 -2 -5 -3 0 5 13 10 4 3 3 4 -1 5 14 13 16 13 8 8 5 -1 1 5 12 13 14 11 9 8 7 5 5 6 7 8 11 15
11 3 10 4 3 27 19 44 27 -3 -7 3 2 -2 4 13 16 11 7 8 7 3 5 10 7 13 12 5 3 5 9 11 10 12 12 12 15 10 9 7 6 8 10 10 9 13 17 19 19
5 13 14 16 20 -0 8 13 30 20 9 6 6 3 4 13 6 8 10 5 6 7 5 4 10 3 1 -5 8 10 2 9 8 9 9 8 6 11 11 10 9 8 9 11 12 21 18 31 18
-1 2 20 11 7 -7 6 53 21 10 19 12 10 4 8 9 2 11 6 8 2 1 -2 0 4 1 2 2 6 7 5 13 13 10 3 7 11 12 7 8 8 9 10 13 23 20 31 -6 -9
4 5 8 10 6 18 16 19 -1 2 -13 -10 27 17 1 -2 5 14 -0 1 3 6 3 5 4 2 6 4 8 8 11 11 9 7 6 13 9 9 9 8 12 14 16 20 9 1 8 4 7
10 24 16 2 8 10 -0 -2 30 14 10 12 4 -10 2 14 1 1 -4 6 6 12 3 3 7 5 10 14 12 13 7 10 10 8 12 11 11 10 10 13 12 14 18 9 11 10 8 10 15
7 9 11 7 13 6 7 2 26 22 25 25 1 -10 6 5 5 -6 12 6 -3 -8 18 -1 4 16 13 9 9 11 15 6 12 10 7 10 15 12 8 11 15 15 16 10 4 6 11 10 3
26 7 9 11 4 0 10 9 1 13 -4 -8 -3 6 5 13 9 5 14 -13 14 1 21 -12 20 5 6 8 9 10 21 13 7 9 6 9 7 13 12 14 14 14 10 12 13 9 11 15 16
Height
3158 3158 3159 3161 3167 3164 3163 3167 3160 3159 3160 3161 3162 3165 3168 3169 3173 3177 3178 3180 3182 3184 3186 3187 3188 3190 3191 3191 3190 3191 3190 3190 3191 3191 3190 3189 3188 3188 3187 3186 3185 3184 3184 3182 3181 3181 3181 3180 3179
3158 3157 3159 3160 3163 3162 3167 3165 3160 3164 3164 3163 3162 3165 3166 3169 3171 3172 3177 3180 3183 3184 3185 3187 3189 3190 3191 3190 3190 3191 3190 3190 3189 3189 3188 3186 3185 3184 3184 3183 3182 3181 3181 3179 3179 3178 3179 3178 3177
3157 3157 3160 3161 3162 3158 3164 3164 3162 3166 3166 3166 3163 3166 3169 3172 3173 3173 3177 3181 3182 3184 3186 3188 3189 3190 3190 3190 3190 3190 3189 3187 3186 3186 3184 3184 3184 3183 3182 3183 3181 3179 3178 3177 3176 3175 3175 3175 3175
3155 3159 3163 3160 3158 3159 3161 3163 3164 3166 3166 3165 3165 3168 3173 3175 3176 3174 3177 3180 3183 3185 3186 3187 3188 3189 3190 3190 3189 3188 3186 3185 3184 3183 3182 3183 3182 3182 3182 3181 3181 3179 3177 3175 3174 3173 3173 3173 3172
3156 3159 3160 3161 3165 3165 3163 3163 3166 3167 3166 3166 3167 3172 3174 3176 3176 3175 3179 3181 3183 3185 3187 3187 3189 3189 3190 3187 3186 3185 3183 3183 3182 3182 3182 3182 3180 3181 3181 3180 3179 3178 3175 3174 3173 3172 3171 3170 3169
3157 3159 3161 3161 3164 3164 3163 3166 3166 3168 3167 3166 3169 3171 3174 3176 3176 3176 3181 3182 3184 3185 3186 3187 3189 3188 3187 3185 3185 3185 3184 3183 3183 3182 3181 3182 3181 3180 3179 3178 3178 3176 3174 3173 3171 3170 3169 3168 3167
3160 3161 3161 3161 3163 3161 3163 3165 3165 3167 3168 3170 3171 3171 3175 3177 3177 3177 3181 3181 3183 3185 3186 3187 3186 3185 3185 3184 3184 3183 3184 3183 3182 3181 3181 3182 3181 3180 3178 3177 3176 3174 3172 3171 3169 3168 3166 3165 3164
3160 3160 3158 3160 3161 3162 3163 3163 3166 3167 3169 3171 3171 3172 3175 3176 3177 3178 3180 3182 3183 3184 3184 3184 3185 3184 3184 3183 3183 3182 3182 3183 3183 3180 3179 3180 3180 3179 3177 3176 3175 3173 3170 3169 3167 3165 3163 3161 3160
3159 3160 3157 3157 3157 3162 3163 3164 3166 3168 3169 3170 3171 3172 3175 3175 3176 3178 3179 3181 3181 3182 3182 3183 3185 3184 3184 3182 3181 3182 3181 3179 3180 3180 3179 3178 3178 3178 3177 3176 3174 3172 3170 3167 3165 3162 3160 3158 3157
3159 3161 3158 3153 3158 3161 3164 3165 3167 3168 3169 3172 3173 3174 3175 3175 3177 3179 3180 3180 3179 3180 3181 3181 3181 3180 3182 3181 3181 3182 3182 3182 3179 3180 3178 3175 3175 3175 3174 3172 3171 3170 3168 3166 3163 3161 3158 3155 3154
3158 3158 3158 3156 3158 3161 3164 3166 3168 3169 3169 3172 3172 3174 3174 3176 3177 3178 3178 3178 3180 3181 3181 3183 3181 3180 3179 3180 3179 3181 3180 3181 3179 3178 3175 3173 3174 3173 3172 3171 3169 3167 3164 3162 3160 3157 3154 3152 3149
3157 3157 3158 3160 3159 3161 3165 3169 3169 3168 3170 3170 3171 3172 3174 3176 3176 3176 3176 3177 3179 3181 3181 3180 3181 3180 3177 3178 3177 3179 3178 3178 3176 3177 3175 3173 3172 3171 3170 3167 3165 3162 3161 3158 3155 3152 3150 3148 3145
3156 3157 3158 3160 3160 3162 3166 3167 3169 3169 3170 3172 3171 3172 3173 3175 3176 3176 3177 3178 3181 3180 3178 3176 3176 3176 3178 3177 3177 3179 3179 3176 3174 3175 3174 3172 3171 3168 3167 3165 3163 3160 3157 3155 3152 3149 3147 3145 3143
3156 3158 3159 3160 3162 3163 3165 3167 3168 3170 3172 3173 3172 3173 3173 3173 3174 3175 3178 3180 3181 3181 3175 3174 3178 3182 3183 3179 3181 3178 3176 3175 3172 3172 3171 3169 3167 3165 3164 3162 3160 3157 3155 3153 3149 3146 3143 3141 3138
3157 3159 3159 3161 3163 3163 3164 3166 3168 3169 3170 3171 3173 3173 3173 3173 3175 3175 3177 3179 3184 3179 3169 3172 3179 3182 3180 3177 3178 3177 3175 3172 3167 3166 3165 3165 3163 3161 3159 3157 3155 3153 3150 3148 3145 3142 3138 3135 3133
3158 3160 3160 3161 3162 3163 3165 3165 3167 3168 3170 3171 3172 3172 3173 3175 3175 3177 3178 3178 3180 3177 3171 3171 3175 3169 3157 3176 3176 3174 3170 3168 3165 3161 3157 3158 3157 3157 3155 3152 3148 3146 3143 3141 3137 3134 3130 3127 3124
3158 3157 3159 3161 3161 3162 3164 3162 3162 3167 3168 3170 3172 3174 3175 3176 3176 3176 3175 3175 3177 3175 3173 3174 3171 3172 3174 3174 3172 3167 3163 3163 3161 3157 3152 3149 3146 3146 3147 3144 3141 3138 3134 3131 3128 3124 3120 3116 3114
3156 3153 3155 3156 3161 3162 3163 3165 3165 3166 3167 3170 3171 3174 3171 3172 3172 3171 3171 3172 3173 3172 3172 3171 3170 3170 3170 3166 3164 3161 3161 3160 3157 3153 3150 3147 3142 3140 3138 3135 3132 3129 3125 3122 3118 3113 3109 3105 3102
3155 3154 3153 3157 3159 3161 3162 3164 3165 3166 3166 3167 3165 3166 3166 3169 3168 3168 3168 3169 3170 3171 3173 3172 3170 3168 3164 3161 3161 3160 3157 3154 3151 3146 3143 3138 3135 3132 3130 3126 3121 3118 3113 3109 3106 3101 3096 3094 3092
3153 3154 3156 3157 3157 3159 3162 3164 3163 3163 3164 3162 3164 3165 3165 3166 3166 3167 3167 3167 3168 3169 3169 3169 3167 3166 3162 3160 3158 3156 3153 3150 3145 3142 3137 3133 3128 3122 3119 3115 3111 3105 3101 3097 3094 3090 3085 3084 3081
3152 3153 3155 3156 3157 3158 3160 3163 3159 3161 3161 3160 3162 3163 3162 3163 3165 3166 3165 3165 3165 3165 3164 3163 3163 3163 3159 3155 3152 3149 3146 3143 3139 3135 3130 3125 3120 3117 3112 3106 3100 3095 3089 3084 3080 3077 3075 3072 3069
3152 3153 3155 3156 3157 3157 3156 3159 3157 3156 3158 3158 3159 3159 3159 3160 3162 3165 3164 3163 3162 3161 3161 3159 3157 3156 3154 3150 3146 3142 3138 3135 3132 3127 3124 3120 3116 3110 3104 3098 3091 3085 3080 3075 3070 3065 3062 3059 3056
3154 3154 3154 3154 3154 3155 3154 3156 3156 3154 3156 3157 3159 3159 3160 3160 3161 3162 3161 3160 3160 3159 3158 3156 3151 3146 3142 3140 3138 3134 3132 3129 3124 3119 3114 3109 3103 3098 3092 3086 3080 3076 3071 3066 3062 3057 3052 3048 3043
3153 3153 3152 3152 3153 3153 3153 3153 3157 3155 3153 3154 3155 3157 3159 3158 3157 3157 3156 3155 3155 3154 3152 3149 3147 3142 3137 3132 3128 3124 3119 3115 3111 3107 3103 3098 3093 3088 3082 3076 3072 3067 3062 3056 3051 3045 3040 3035 3031
3153 3151 3149 3152 3153 3153 3150 3151 3158 3156 3153 3153 3152 3153 3155 3156 3155 3154 3152 3151 3149 3148 3146 3142 3140 3137 3132 3128 3124 3119 3113 3106 3101 3097 3092 3086 3082 3078 3072 3066 3060 3055 3049 3042 3037 3032 3027 3023 3020
3152 3153 3153 3156 3159 3154 3151 3153 3158 3156 3155 3154 3154 3154 3154 3154 3154 3152 3151 3149 3147 3143 3141 3139 3135 3131 3125 3120 3115 3111 3107 3100 3094 3090 3084 3079 3073 3066 3059 3053 3048 3043 3037 3031 3026 3023 3018 3015 3013
3153 3154 3155 3155 3156 3155 3154 3158 3158 3157 3157 3156 3155 3154 3154 3153 3152 3151 3148 3145 3143 3141 3138 3133 3129 3124 3117 3112 3107 3102 3097 3090 3086 3081 3077 3071 3064 3058 3050 3045 3038 3032 3027 3022 3017 3014 3010 3006 3003
3154 3155 3156 3156 3159 3158 3154 3156 3155 3155 3156 3159 3156 3155 3154 3151 3150 3148 3145 3142 3140 3138 3134 3129 3123 3117 3111 3105 3100 3095 3088 3083 3079 3073 3068 3061 3055 3048 3041 3035 3030 3023 3017 3013 3009 3005 3001 2997 2994
3155 3155 3156 3157 3157 3158 3161 3158 3155 3156 3155 3156 3154 3152 3150 3149 3146 3144 3141 3138 3135 3130 3126 3120 3114 3107 3101 3096 3092 3087 3081 3075 3069 3064 3058 3051 3044 3039 3033 3025 3019 3015 3010 3005 3000 2996 2992 2987 2984
3153 3154 3155 3155 3157 3157 3158 3158 3157 3154 3154 3152 3150 3148 3146 3144 3142 3140 3137 3133 3130 3124 3118 3111 3105 3098 3093 3087 3083 3079 3072 3066 3061 3056 3051 3042 3037 3030 3024 3018 3012 3006 3000 2995 2991 2987 2983 2979 2976